Regional Weather Roundup
Issued by NWS

Home | Current Version | Previous Version | Text Only | Print | Product List | Glossary On
Versions: 1 2 3 4 5 6 7 8 9 10 11 12 13 14 15 16 17 18 19 20 21 22 23 24 25 26 27 28 29 30 31 32 33 34 35 36 37 38 39 40 41 42 43 44 45 46 47 48 49 50
000
ASUS43 KLSX 290059
RWRMO

WEATHER SUMMARY FOR MISSOURI
NATIONAL WEATHER SERVICE SPRINGFIELD MO
700 PM CST WED JAN 28 2015

NOTE: "FAIR" INDICATES FEW OR NO CLOUDS BELOW 12,000 FEET WITH NO
       SIGNIFICANT WEATHER AND/OR OBSTRUCTIONS TO VISIBILITY.
       CURRENT SKY AND/OR WEATHER CONDITIONS ARE NOT AVAILABLE FOR
       CHILLICOTHE AND FARMINGTON.

MOZ001>031-035>038-043-044-053-054-290200-
...NORTHERN AND WESTERN MISSOURI...

CITY           SKY/WX    TMP DP  RH WIND       PRES   REMARKS
KANSAS CTY INT FAIR      63  40  42 SW13      29.72R
KANSAS C DTWN  FAIR      68  39  34 SW13      29.72
LEE`S SUMMIT   FAIR      65  38  36 SW14G22   29.73R
ST JOSEPH      FAIR      61  39  44 W10       29.72R
CHILLICOTHE      N/A     61  41  47 S9G18     29.70R
KIRKSVILLE     FAIR      45  37  73 S10       29.71

$$
MOZ066>068-077>081-088>096-101>105-290200-
...SOUTHWEST MISSOURI...

CITY           SKY/WX    TMP DP  RH WIND       PRES   REMARKS
SPRINGFIELD    FAIR      61  38  42 S17       29.85F
JOPLIN         FAIR      65  40  39 S20       29.85R

$$
MOZ032>034-039>042-045>050-055>058-069>072-290200-
...CENTRAL MISSOURI...

CITY           SKY/WX    TMP DP  RH WIND       PRES   REMARKS
COLUMBIA       FAIR      54  36  50 S18       29.80
JEFFERSON CITY FAIR      55  34  45 SE14G24   29.82F
ROLLA          FAIR      48  33  56 S20       29.86F
SEDALIA        FAIR      60  38  43 S20       29.77S
OSAGE BEACH    FAIR      55  34  44 S14G20    29.84F

$$
MOZ051-052-059>065-290200-
...EAST CENTRAL MISSOURI...

CITY           SKY/WX    TMP DP  RH WIND       PRES   REMARKS
ST LOUIS INTL  MOCLDY    46  32  58 SE15      29.91F
SPIRIT OF STL  FAIR      48  31  51 S12G22    29.89
ST CHARLES     FAIR      42  33  70 SE14      29.90

$$
MOZ072>076-082>087-097>100-106>115-290200-
...SOUTH CENTRAL AND SOUTHEAST MISSOURI...

CITY           SKY/WX    TMP DP  RH WIND       PRES   REMARKS
CAPE GIRARDEAU FAIR      43  33  68 S6        30.07R
FARMINGTON     FAIR      43  34  70 S13G25    30.02R
POPLAR BLUFF   FAIR      43  34  70 SE5       30.04F
WEST PLAINS    FAIR      48  33  56 S12       29.99F

$$


USA.gov is the U.S. government's official web portal to all federal, state and local government web resources and services.